Overview Statistics Trail Chart Weather Telemetry Raw packets
 

This is the latest recevied weather packets stored in our database for station/object F4NFR-13. If no packets are shown the sender has not sent any weather packets the latest 10 day(s).

<< 53 54 55 56 57 58 59 >>
Time Temp. Humidity Pressure Rain* Wind** Luminosity Snow
1777773971 12.78° C 99% 1012.3 hPa 0 mm - 0 W/m² -
1777773669 12.78° C 99% 1012.7 hPa 0 mm - 0 W/m² -
1777773366 12.78° C 99% 1012.7 hPa 0.51 mm - 0 W/m² -
1777772762 12.78° C 99% 1013 hPa 0.25 mm - 0 W/m² -
1777772460 12.78° C 98% 1013 hPa 0.25 mm - 0 W/m² -
1777772157 12.78° C 98% 1013 hPa 0.25 mm - 0 W/m² -
1777771855 12.78° C 98% 1013 hPa 0 mm - 0 W/m² -
1777771552 12.78° C 98% 1012.7 hPa 0 mm - 0 W/m² -
1777771253 12.78° C 97% 1012.7 hPa 0 mm - 0 W/m² -
1777770948 12.78° C 97% 1013 hPa 0 mm - 0 W/m² -
1777770645 13.89° C 97% 1013 hPa 0 mm - 0 W/m² -
1777770343 13.89° C 97% 1013 hPa 0 mm - 0 W/m² -
1777770041 13.89° C 97% 1013 hPa 4.06 mm - 0 W/m² -
1777769739 13.89° C 97% 1013.4 hPa 3.56 mm - 0 W/m² -
1777769437 13.89° C 96% 1013.4 hPa 3.3 mm - 0 W/m² -
1777769135 13.89° C 95% 1013 hPa 3.3 mm - 0 W/m² -
1777768833 15° C 95% 1013.4 hPa 3.3 mm - 0 W/m² -
1777768531 15° C 94% 1013.4 hPa 1.52 mm - 0 W/m² -
1777767624 15° C 88% 1013.4 hPa 0.25 mm - 0 W/m² -
1777767322 15° C 86% 1013.4 hPa 0.25 mm - 0 W/m² -
1777767019 16.11° C 83% 1013 hPa 0 mm - 0 W/m² -
1777766717 16.11° C 82% 1013.4 hPa 0 mm - 0 W/m² -
1777766415 16.11° C 82% 1013.4 hPa 0 mm - 0 W/m² -
1777766112 16.11° C 82% 1013.4 hPa 0 mm - 0 W/m² -
1777765810 15° C 82% 1013.4 hPa 0 mm - 0 W/m² -

* Rain latest hour (hover to see other rain measurements)
** Current wind speed in m/s (hover to see current wind gust speed)